Flag for Germany Past Weather in Ingelheim am Rhein, Rhineland-Palatinate, Germany — Yesterday and Last 2 Weeks

Now
66 °F

Overcast.


Feels Like: 66 °F
Forecast: 59 / 66 °F
Wind: 7 mph from East

Location: Wiesbaden Airport

Current Time: May 29, 2016 at 1:32:40 PM

Latest Report: May 29, 2016 at 1:04 PM


Visibility: N/A

Pressure: 29.72 "Hg

Humidity: 78%

Dew Point: 59 °F

Location of Ingelheim am RheinLocation

Past Weather in Ingelheim am Rhein — Graph

°F

Ingelheim am Rhein Temperature Yesterday

Maximum temperature yesterday: 75 °F (at 1:58 PM)
Minimum temperature yesterday: 54 °F (at 5:58 AM)
Average temperature yesterday: 64 °F

High & Low Weather Summary for the Past Weeks

 TemperatureHumidityPressure
High77 °F (May 22, 2:58 PM)100% (May 26, 6:04 AM)30.15 "Hg (May 26, 6:04 AM)
Low42 °F (May 15, 3:58 AM)32% (May 22, 3:58 PM)29.69 "Hg (May 29, 7:58 AM)
Average57 °F70%29.97 "Hg
* Reported May 14 11:58 AM — May 29 11:58 AM, Ingelheim am Rhein, Weather by CustomWeather, © 2016

Note: Actual official high and low records may vary slightly from our data, if they occured in-between our weather recording intervals... More about our weather records

Advertising

Ingelheim am Rhein Weather History for the Previous 24 Hours

Scroll right to see more
 ConditionsComfort  
Time TempWeatherWind HumidityBarometerVisibility
11:58 AM
Sun, May 29
63 °FMostly cloudy.7 mph88%29.72 "HgN/A
10:58 AM63 °FOvercast.7 mph86%29.73 "HgN/A
9:58 AM63 °FOvercast.7 mph83%29.73 "HgN/A
8:59 AM59 °FOvercast.2 mph94%29.74 "HgN/A
7:58 AM60 °FSunny.5 mph85%29.69 "HgN/A
6:58 AM57 °FLight rain. Scattered clouds.8 mph93%29.71 "HgN/A
5:58 AM55 °FPassing clouds.1 mph94%29.74 "HgN/A
4:58 AM54 °FOvercast.No wind94%29.76 "HgN/A
3:58 AM55 °FClear.1 mph94%29.75 "HgN/A
2:58 AM56 °FClear.3 mph89%29.78 "HgN/A
1:58 AM59 °FClear.No wind85%29.78 "HgN/A
12:58 AM59 °FPassing clouds.2 mph88%29.81 "HgN/A
11:58 PM
Sat, May 28
59 °FPassing clouds.6 mph88%29.80 "HgN/A
10:58 PM59 °FClear.No wind90%29.83 "HgN/A
9:58 PM61 °FPassing clouds.3 mph88%29.83 "HgN/A
8:58 PM64 °FSunny.5 mph91%29.84 "HgN/A
8:01 PM64 °FLight rain. Passing clouds.3 mph88%29.88 "HgN/A
7:58 PM64 °FPassing clouds.3 mph90%29.88 "HgN/A
7:04 PM66 °FRain. Fog.3 mph88%29.86 "Hg3 mi
5:58 PM69 °FThunderstorms. Sunny.No wind76%29.84 "HgN/A
5:04 PM70 °FSunny.5 mph69%29.85 "HgN/A
4:58 PM70 °FThunderstorms. Sunny.5 mph69%29.85 "HgN/A
3:58 PM72 °FPassing clouds.5 mph69%29.85 "HgN/A
2:58 PM74 °FSunny.3 mph49%29.88 "HgN/A
1:58 PM75 °FPassing clouds.6 mph57%29.88 "HgN/A
Weather by CustomWeather, © 2016

See weather overviewHow to use our weather pages